| time (UTC) | temp F | wind direction | speed MPH | gust MPH | rain 1hr in | rain 24hr in | rain mn in | humidity % | barometer mb |
| 20260502130503 | 63 | 163 | 4.0 | 11.0 | 0.00 | 0.00 | 0.00 | 79 | 1016.6 |
| 20260502123503 | 63 | 120 | 3.0 | 7.0 | 0.00 | 0.00 | 0.00 | 86 | 1016.5 |
| 20260502123003 | 63 | 128 | 2.0 | 7.0 | 0.00 | 0.00 | 0.00 | 86 | 1016.7 |
| 20260502122503 | 63 | 159 | 1.0 | 7.0 | 0.00 | 0.00 | 0.00 | 85 | 1016.8 |
| 20260502122003 | 63 | 160 | 1.0 | 4.0 | 0.00 | 0.00 | 0.00 | 85 | 1016.9 |
| 20260502121503 | 63 | 138 | 1.0 | 5.0 | 0.00 | 0.00 | 0.00 | 84 | 1017.1 |
| 20260502121003 | 63 | 143 | 2.0 | 5.0 | 0.00 | 0.00 | 0.00 | 84 | 1017.3 |
| 20260502120503 | 64 | 351 | 1.0 | 4.0 | 0.00 | 0.00 | 0.00 | 84 | 1017.3 |
| 20260502115503 | 63 | 30 | 1.0 | 4.0 | 0.00 | 0.00 | 0.00 | 83 | 1017.5 |
| 20260502115003 | 64 | 29 | 1.0 | 5.0 | 0.00 | 0.00 | 0.00 | 83 | 1017.4 |
| 20260502114503 | 63 | 346 | 2.0 | 9.0 | 0.00 | 0.00 | 0.00 | 83 | 1017.5 |
| 20260502114003 | 64 | 330 | 2.0 | 9.0 | 0.00 | 0.00 | 0.00 | 83 | 1017.5 |
| 20260502113503 | 63 | 331 | 1.0 | 8.0 | 0.00 | 0.00 | 0.00 | 83 | 1017.6 |
| 20260502113003 | 63 | 316 | 2.0 | 9.0 | 0.00 | 0.00 | 0.00 | 84 | 1017.6 |
| 20260502112503 | 63 | 320 | 4.0 | 12.0 | 0.00 | 0.00 | 0.00 | 84 | 1017.6 |
| 20260502112003 | 63 | 327 | 6.0 | 13.0 | 0.00 | 0.00 | 0.00 | 84 | 1017.6 |
| 20260502111503 | 62 | 328 | 6.0 | 14.0 | 0.00 | 0.00 | 0.00 | 84 | 1017.5 |
| 20260502111017 | 62 | 323 | 6.0 | 14.0 | 0.00 | 0.00 | 0.00 | 84 | 1017.5 |
| 20260502110517 | 63 | 323 | 7.0 | 15.0 | 0.00 | 0.00 | 0.00 | 84 | 1017.6 |
| 20260502110017 | 63 | 323 | 10.0 | 16.0 | 0.00 | 0.00 | 0.00 | 83 | 1017.6 |
| 20260502105503 | 63 | 322 | 10.0 | 21.0 | 0.00 | 0.00 | 0.00 | 82 | 1017.6 |
| 20260502105003 | 64 | 324 | 11.0 | 21.0 | 0.00 | 0.00 | 0.00 | 80 | 1017.5 |
| 20260502104503 | 64 | 320 | 11.0 | 20.0 | 0.00 | 0.00 | 0.00 | 77 | 1017.6 |
| 20260502104003 | 66 | 312 | 9.0 | 18.0 | 0.00 | 0.00 | 0.00 | 72 | 1017.7 |
| 20260502103503 | 69 | 302 | 5.0 | 16.0 | 0.00 | 0.00 | 0.00 | 68 | 1017.9 |
| 20260502103003 | 69 | 243 | 5.0 | 12.0 | 0.00 | 0.00 | 0.00 | 62 | 1017.6 |
| 20260502102503 | 69 | 189 | 7.0 | 19.0 | 0.00 | 0.00 | 0.00 | 61 | 1017.6 |
| 20260502101503 | 69 | 196 | 7.0 | 18.0 | 0.00 | 0.00 | 0.00 | 62 | 1017.6 |
| 20260502101003 | 69 | 196 | 9.0 | 26.0 | 0.00 | 0.00 | 0.00 | 62 | 1017.5 |
| 20260502100503 | 69 | 190 | 11.0 | 26.0 | 0.00 | 0.00 | 0.00 | 62 | 1017.2 |
| 20260502091503 | 68 | 190 | 9.0 | 20.0 | 0.00 | 0.00 | 0.00 | 63 | 1016.7 |
| 20260502091003 | 68 | 205 | 8.0 | 15.0 | 0.00 | 0.00 | 0.00 | 63 | 1016.9 |
| 20260502090503 | 68 | 197 | 9.0 | 18.0 | 0.00 | 0.00 | 0.00 | 63 | 1017.0 |
| 20260502071503 | 67 | 183 | 11.0 | 25.0 | 0.00 | 0.00 | 0.00 | 63 | 1017.0 |
| 20260502071003 | 67 | 182 | 12.0 | 25.0 | 0.00 | 0.00 | 0.00 | 63 | 1017.0 |
| 20260502070503 | 67 | 183 | 13.0 | 24.0 | 0.00 | 0.00 | 0.00 | 63 | 1016.9 |
| 20260502070017 | 67 | 182 | 14.0 | 29.0 | 0.00 | 0.00 | 0.00 | 63 | 1017.1 |
| 20260502065503 | 67 | 186 | 12.0 | 29.0 | 0.00 | 0.00 | 0.00 | 63 | 1017.0 |
| 20260502065003 | 67 | 197 | 13.0 | 24.0 | 0.00 | 0.00 | 0.00 | 63 | 1017.1 |
| 20260502064504 | 68 | 197 | 14.0 | 28.0 | 0.00 | 0.00 | 0.00 | 62 | 1017.0 |
| 20260502064003 | 67 | 195 | 13.0 | 28.0 | 0.00 | 0.00 | 0.00 | 62 | 1016.9 |
| 20260502063503 | 68 | 195 | 13.0 | 23.0 | 0.00 | 0.00 | 0.00 | 62 | 1016.8 |
| 20260502063003 | 68 | 185 | 14.0 | 28.0 | 0.00 | 0.00 | 0.00 | 62 | 1016.6 |
| 20260502062503 | 68 | 177 | 15.0 | 31.0 | 0.00 | 0.00 | 0.00 | 62 | 1016.8 |
| 20260502062003 | 68 | 187 | 16.0 | 31.0 | 0.00 | 0.00 | 0.00 | 62 | 1016.6 |
| 20260502061503 | 68 | 194 | 15.0 | 29.0 | 0.00 | 0.00 | 0.00 | 62 | 1016.7 |
| 20260502061003 | 68 | 193 | 14.0 | 32.0 | 0.00 | 0.00 | 0.00 | 62 | 1016.5 |
| 20260502060503 | 68 | 184 | 14.0 | 32.0 | 0.00 | 0.00 | 0.00 | 62 | 1016.6 |
| 20260502060017 | 68 | 177 | 11.0 | 25.0 | 0.00 | 0.00 | 0.00 | 62 | 1016.5 |
| 20260502055517 | 67 | 183 | 9.0 | 21.0 | 0.00 | 0.00 | 0.00 | 62 | 1016.6 |
| 20260502055003 | 67 | 186 | 9.0 | 20.0 | 0.00 | 0.00 | 0.00 | 62 | 1016.6 |
| 20260502054503 | 67 | 178 | 9.0 | 21.0 | 0.00 | 0.00 | 0.00 | 62 | 1016.6 |
| 20260502054003 | 67 | 183 | 10.0 | 21.0 | 0.00 | 0.00 | 0.00 | 62 | 1016.6 |
| 20260502053503 | 67 | 195 | 12.0 | 30.0 | 0.00 | 0.00 | 0.00 | 61 | 1016.7 |
| 20260502053003 | 68 | 194 | 12.0 | 30.0 | 0.00 | 0.00 | 0.00 | 61 | 1016.7 |
| 20260502052503 | 68 | 199 | 10.0 | 23.0 | 0.00 | 0.00 | 0.00 | 61 | 1016.6 |
| 20260502052003 | 68 | 196 | 11.0 | 23.0 | 0.00 | 0.00 | 0.00 | 61 | 1016.5 |
| 20260502051503 | 68 | 190 | 13.0 | 27.0 | 0.00 | 0.00 | 0.00 | 61 | 1016.5 |
| 20260502051003 | 68 | 185 | 11.0 | 27.0 | 0.00 | 0.00 | 0.00 | 61 | 1016.3 |
| 20260502050517 | 68 | 182 | 9.0 | 19.0 | 0.00 | 0.00 | 0.00 | 61 | 1016.5 |
| 20260502050003 | 68 | 180 | 11.0 | 29.0 | 0.00 | 0.00 | 0.00 | 61 | 1016.4 |
| 20260502045503 | 68 | 182 | 12.0 | 29.0 | 0.00 | 0.00 | 0.00 | 60 | 1016.3 |
| 20260502045003 | 68 | 186 | 11.0 | 20.0 | 0.00 | 0.00 | 0.00 | 60 | 1016.4 |
| 20260502044504 | 68 | 182 | 12.0 | 29.0 | 0.00 | 0.00 | 0.00 | 60 | 1016.2 |
| 20260502044017 | 68 | 184 | 13.0 | 29.0 | 0.00 | 0.00 | 0.00 | 60 | 1016.5 |
| 20260502043503 | 68 | 193 | 12.0 | 24.0 | 0.00 | 0.00 | 0.00 | 59 | 1016.7 |
| 20260502043003 | 68 | 191 | 12.0 | 23.0 | 0.00 | 0.00 | 0.00 | 59 | 1016.4 |
| 20260502042503 | 68 | 179 | 12.0 | 23.0 | 0.00 | 0.00 | 0.00 | 59 | 1016.3 |
| 20260502042003 | 68 | 181 | 11.0 | 23.0 | 0.00 | 0.00 | 0.00 | 59 | 1016.4 |
| 20260502041503 | 68 | 185 | 10.0 | 23.0 | 0.00 | 0.00 | 0.00 | 59 | 1016.3 |
| 20260502041017 | 68 | 187 | 10.0 | 23.0 | 0.00 | 0.00 | 0.00 | 59 | 1016.0 |
| 20260502040503 | 68 | 190 | 10.0 | 21.0 | 0.00 | 0.00 | 0.00 | 59 | 1016.2 |
| 20260502040017 | 68 | 180 | 11.0 | 23.0 | 0.00 | 0.00 | 0.00 | 59 | 1016.2 |
| 20260502035517 | 68 | 176 | 13.0 | 30.0 | 0.00 | 0.00 | 0.00 | 58 | 1016.1 |
| 20260502035017 | 68 | 177 | 14.0 | 30.0 | 0.00 | 0.00 | 0.00 | 58 | 1016.2 |
| 20260502034503 | 68 | 168 | 13.0 | 27.0 | 0.00 | 0.00 | 0.00 | 58 | 1016.5 |
| 20260502034004 | 68 | 171 | 13.0 | 27.0 | 0.00 | 0.00 | 0.00 | 58 | 1016.3 |
| 20260502033517 | 68 | 179 | 13.0 | 32.0 | 0.00 | 0.00 | 0.00 | 58 | 1016.2 |
| 20260502033003 | 68 | 180 | 13.0 | 32.0 | 0.00 | 0.00 | 0.00 | 58 | 1016.3 |
| 20260502032503 | 68 | 184 | 12.0 | 24.0 | 0.00 | 0.00 | 0.00 | 58 | 1016.3 |
| 20260502032003 | 68 | 190 | 11.0 | 22.0 | 0.00 | 0.00 | 0.00 | 58 | 1016.4 |
| 20260502031517 | 68 | 188 | 13.0 | 28.0 | 0.00 | 0.00 | 0.00 | 58 | 1016.4 |
| 20260502031003 | 69 | 184 | 13.0 | 28.0 | 0.00 | 0.00 | 0.00 | 57 | 1016.5 |
| 20260502030503 | 68 | 177 | 13.0 | 29.0 | 0.00 | 0.00 | 0.00 | 57 | 1016.6 |
| 20260502030017 | 69 | 170 | 14.0 | 29.0 | 0.00 | 0.00 | 0.00 | 57 | 1016.4 |
| 20260502025503 | 69 | 174 | 14.0 | 27.0 | 0.00 | 0.00 | 0.00 | 56 | 1016.4 |
| 20260502025003 | 69 | 179 | 13.0 | 30.0 | 0.00 | 0.00 | 0.00 | 56 | 1016.5 |
| 20260502024503 | 69 | 179 | 13.0 | 30.0 | 0.00 | 0.00 | 0.00 | 56 | 1016.6 |
| 20260502024003 | 69 | 179 | 14.0 | 30.0 | 0.00 | 0.00 | 0.00 | 56 | 1016.4 |
| 20260502023503 | 69 | 185 | 13.0 | 30.0 | 0.00 | 0.00 | 0.00 | 55 | 1016.4 |
| 20260502023003 | 69 | 194 | 12.0 | 23.0 | 0.00 | 0.00 | 0.00 | 55 | 1016.3 |
| 20260502022503 | 69 | 192 | 12.0 | 23.0 | 0.00 | 0.00 | 0.00 | 55 | 1016.4 |
| 20260502022003 | 69 | 180 | 12.0 | 23.0 | 0.00 | 0.00 | 0.00 | 55 | 1016.4 |
| 20260502021503 | 69 | 177 | 11.0 | 21.0 | 0.00 | 0.00 | 0.00 | 55 | 1016.3 |
| 20260502021017 | 69 | 185 | 11.0 | 19.0 | 0.00 | 0.00 | 0.00 | 55 | 1016.5 |
| 20260502020517 | 69 | 185 | 11.0 | 26.0 | 0.00 | 0.00 | 0.00 | 55 | 1016.3 |
| 20260502020003 | 69 | 189 | 13.0 | 26.0 | 0.00 | 0.00 | 0.00 | 55 | 1016.3 |
| 20260502015503 | 69 | 188 | 12.0 | 25.0 | 0.00 | 0.00 | 0.00 | 55 | 1016.4 |
| 20260502015003 | 69 | 180 | 10.0 | 19.0 | 0.00 | 0.00 | 0.00 | 56 | 1016.2 |
| 20260502014503 | 69 | 189 | 10.0 | 18.0 | 0.00 | 0.00 | 0.00 | 55 | 1016.3 |
| 20260502014003 | 69 | 191 | 10.0 | 26.0 | 0.00 | 0.00 | 0.00 | 55 | 1016.4 |
| 20260502013503 | 69 | 183 | 11.0 | 26.0 | 0.00 | 0.00 | 0.00 | 55 | 1016.4 |
| 20260502013017 | 69 | 180 | 11.0 | 24.0 | 0.00 | 0.00 | 0.00 | 56 | 1016.4 |
| 20260502012503 | 69 | 177 | 10.0 | 24.0 | 0.00 | 0.00 | 0.00 | 56 | 1016.3 |
| 20260502012003 | 69 | 180 | 9.0 | 22.0 | 0.00 | 0.00 | 0.00 | 56 | 1016.3 |
| 20260502011503 | 69 | 177 | 10.0 | 20.0 | 0.00 | 0.00 | 0.00 | 56 | 1016.6 |
| 20260502011003 | 69 | 181 | 11.0 | 19.0 | 0.00 | 0.00 | 0.00 | 56 | 1016.5 |
| 20260502010517 | 69 | 182 | 10.0 | 18.0 | 0.00 | 0.00 | 0.00 | 56 | 1016.5 |
| 20260502010017 | 69 | 175 | 10.0 | 18.0 | 0.00 | 0.00 | 0.00 | 56 | 1016.6 |
| 20260502005503 | 70 | 182 | 9.0 | 18.0 | 0.00 | 0.00 | 0.00 | 56 | 1016.7 |
| 20260502005003 | 70 | 178 | 9.0 | 22.0 | 0.00 | 0.00 | 0.00 | 56 | 1016.9 |
| 20260502004503 | 70 | 169 | 10.0 | 22.0 | 0.00 | 0.00 | 0.00 | 56 | 1016.9 |
| 20260502004003 | 70 | 177 | 10.0 | 20.0 | 0.00 | 0.00 | 0.00 | 55 | 1017.0 |
| 20260502003503 | 70 | 188 | 9.0 | 18.0 | 0.00 | 0.00 | 0.00 | 55 | 1017.2 |
| 20260502003003 | 70 | 184 | 11.0 | 21.0 | 0.00 | 0.00 | 0.00 | 55 | 1017.3 |
| 20260502002503 | 70 | 178 | 11.0 | 21.0 | 0.00 | 0.00 | 0.00 | 55 | 1017.5 |
| 20260502002003 | 70 | 173 | 10.0 | 19.0 | 0.00 | 0.00 | 0.00 | 55 | 1017.2 |
| 20260502001517 | 70 | 172 | 10.0 | 20.0 | 0.00 | 0.00 | 0.00 | 55 | 1017.3 |
| 20260502001003 | 70 | 170 | 10.0 | 20.0 | 0.00 | 0.00 | 0.00 | 55 | 1017.5 |
| 20260502000503 | 70 | 169 | 10.0 | 20.0 | 0.00 | 0.00 | 0.00 | 55 | 1017.6 |
| 20260502000003 | 70 | 175 | 11.0 | 21.0 | 0.00 | 0.00 | 0.00 | 55 | 1017.4 |
| 20260501235503 | 70 | 179 | 12.0 | 21.0 | 0.00 | 0.00 | 0.00 | 55 | 1017.6 |
| 20260501235003 | 71 | 182 | 12.0 | 25.0 | 0.00 | 0.00 | 0.00 | 55 | 1017.8 |
| 20260501234503 | 71 | 187 | 12.0 | 25.0 | 0.00 | 0.00 | 0.00 | 54 | 1017.8 |
| 20260501234003 | 71 | 193 | 11.0 | 24.0 | 0.00 | 0.00 | 0.00 | 55 | 1018.0 |
| 20260501233503 | 70 | 186 | 10.0 | 24.0 | 0.00 | 0.00 | 0.00 | 55 | 1017.8 |
| 20260501233003 | 71 | 180 | 11.0 | 22.0 | 0.00 | 0.00 | 0.00 | 54 | 1017.8 |
| 20260501232503 | 71 | 189 | 11.0 | 22.0 | 0.00 | 0.00 | 0.00 | 54 | 1017.7 |
| 20260501232003 | 70 | 192 | 10.0 | 21.0 | 0.00 | 0.00 | 0.00 | 54 | 1017.7 |
| 20260501231503 | 71 | 184 | 11.0 | 23.0 | 0.00 | 0.00 | 0.00 | 54 | 1017.7 |
| 20260501231017 | 71 | 175 | 11.0 | 23.0 | 0.00 | 0.00 | 0.00 | 54 | 1017.8 |
| 20260501230503 | 71 | 177 | 10.0 | 22.0 | 0.00 | 0.00 | 0.00 | 54 | 1017.8 |
| 20260501230003 | 71 | 185 | 9.0 | 18.0 | 0.00 | 0.00 | 0.00 | 54 | 1017.8 |
| 20260501225503 | 71 | 187 | 9.0 | 16.0 | 0.00 | 0.00 | 0.00 | 55 | 1017.8 |
| 20260501225003 | 71 | 186 | 8.0 | 16.0 | 0.00 | 0.00 | 0.00 | 55 | 1017.9 |
| 20260501224503 | 71 | 184 | 10.0 | 23.0 | 0.00 | 0.00 | 0.00 | 54 | 1017.9 |
| 20260501224003 | 71 | 183 | 11.0 | 23.0 | 0.00 | 0.00 | 0.00 | 54 | 1017.9 |
| 20260501223503 | 71 | 183 | 9.0 | 20.0 | 0.00 | 0.00 | 0.00 | 54 | 1017.9 |
| 20260501223017 | 71 | 181 | 8.0 | 19.0 | 0.00 | 0.00 | 0.00 | 55 | 1017.9 |
| 20260501222517 | 71 | 177 | 9.0 | 20.0 | 0.00 | 0.00 | 0.00 | 55 | 1018.0 |
| 20260501222003 | 71 | 174 | 8.0 | 20.0 | 0.00 | 0.00 | 0.00 | 55 | 1017.9 |
| 20260501221503 | 71 | 177 | 8.0 | 17.0 | 0.00 | 0.00 | 0.00 | 55 | 1018.0 |
| 20260501221003 | 71 | 188 | 9.0 | 18.0 | 0.00 | 0.00 | 0.00 | 55 | 1018.0 |
| 20260501220503 | 72 | 180 | 9.0 | 18.0 | 0.00 | 0.00 | 0.00 | 55 | 1018.0 |
| 20260501215503 | 72 | 178 | 11.0 | 23.0 | 0.00 | 0.00 | 0.00 | 55 | 1018.2 |
| 20260501215003 | 72 | 174 | 10.0 | 21.0 | 0.00 | 0.00 | 0.00 | 55 | 1018.2 |
| 20260501214503 | 72 | 176 | 9.0 | 20.0 | 0.00 | 0.00 | 0.00 | 56 | 1018.2 |
| 20260501214003 | 72 | 177 | 10.0 | 21.0 | 0.00 | 0.00 | 0.00 | 55 | 1018.2 |
| 20260501213503 | 72 | 175 | 9.0 | 21.0 | 0.00 | 0.00 | 0.00 | 56 | 1018.2 |
| 20260501213003 | 72 | 180 | 8.0 | 17.0 | 0.00 | 0.00 | 0.00 | 56 | 1018.2 |
| 20260501212503 | 72 | 185 | 8.0 | 16.0 | 0.00 | 0.00 | 0.00 | 56 | 1018.1 |
| 20260501212003 | 72 | 184 | 7.0 | 15.0 | 0.00 | 0.00 | 0.00 | 56 | 1018.1 |
| 20260501211503 | 72 | 176 | 7.0 | 15.0 | 0.00 | 0.00 | 0.00 | 56 | 1018.0 |
| 20260501211017 | 72 | 175 | 7.0 | 14.0 | 0.00 | 0.00 | 0.00 | 56 | 1018.0 |
| 20260501210503 | 72 | 174 | 7.0 | 12.0 | 0.00 | 0.00 | 0.00 | 56 | 1018.1 |
| 20260501210017 | 72 | 172 | 7.0 | 18.0 | 0.00 | 0.00 | 0.00 | 56 | 1018.0 |
| 20260501205503 | 72 | 176 | 8.0 | 18.0 | 0.00 | 0.00 | 0.00 | 56 | 1018.1 |
| 20260501205003 | 72 | 178 | 8.0 | 16.0 | 0.00 | 0.00 | 0.00 | 57 | 1018.1 |
| 20260501204503 | 72 | 180 | 8.0 | 16.0 | 0.00 | 0.00 | 0.00 | 57 | 1018.1 |
| 20260501204003 | 72 | 183 | 7.0 | 13.0 | 0.00 | 0.00 | 0.00 | 58 | 1018.0 |
| 20260501203503 | 72 | 185 | 8.0 | 20.0 | 0.00 | 0.00 | 0.00 | 57 | 1017.9 |
| 20260501203003 | 73 | 179 | 9.0 | 20.0 | 0.00 | 0.00 | 0.00 | 57 | 1018.0 |
| 20260501202503 | 73 | 175 | 9.0 | 18.0 | 0.00 | 0.00 | 0.00 | 57 | 1018.1 |
| 20260501202003 | 73 | 181 | 9.0 | 20.0 | 0.00 | 0.00 | 0.00 | 58 | 1018.0 |
| 20260501201503 | 73 | 180 | 7.0 | 20.0 | 0.00 | 0.00 | 0.00 | 58 | 1018.0 |
| 20260501201003 | 72 | 192 | 6.0 | 14.0 | 0.00 | 0.00 | 0.00 | 60 | 1018.1 |
| 20260501200503 | 72 | 217 | 5.0 | 10.0 | 0.00 | 0.00 | 0.00 | 60 | 1018.0 |
| 20260501200003 | 72 | 219 | 5.0 | 11.0 | 0.00 | 0.00 | 0.00 | 60 | 1017.9 |
| 20260501195517 | 72 | 205 | 4.0 | 11.0 | 0.00 | 0.00 | 0.00 | 61 | 1017.9 |
| 20260501195003 | 72 | 202 | 4.0 | 10.0 | 0.00 | 0.00 | 0.00 | 61 | 1017.9 |
| 20260501194503 | 72 | 207 | 5.0 | 10.0 | 0.00 | 0.00 | 0.00 | 61 | 1017.9 |
| 20260501194003 | 72 | 201 | 5.0 | 10.0 | 0.00 | 0.00 | 0.00 | 60 | 1017.9 |
| 20260501193503 | 72 | 195 | 4.0 | 9.0 | 0.00 | 0.00 | 0.00 | 60 | 1017.9 |
| 20260501193003 | 72 | 199 | 4.0 | 9.0 | 0.00 | 0.00 | 0.00 | 59 | 1017.9 |
| 20260501192503 | 72 | 195 | 4.0 | 9.0 | 0.00 | 0.00 | 0.00 | 59 | 1017.9 |
| 20260501192003 | 72 | 195 | 4.0 | 9.0 | 0.00 | 0.00 | 0.00 | 59 | 1017.9 |
| 20260501191503 | 72 | 200 | 4.0 | 9.0 | 0.00 | 0.00 | 0.00 | 59 | 1017.8 |
| 20260501191003 | 73 | 186 | 3.0 | 9.0 | 0.00 | 0.00 | 0.00 | 58 | 1017.9 |
| 20260501190503 | 73 | 172 | 3.0 | 6.0 | 0.00 | 0.00 | 0.00 | 58 | 1017.8 |
| 20260501190004 | 74 | 182 | 3.0 | 6.0 | 0.00 | 0.00 | 0.00 | 58 | 1017.8 |
| 20260501185503 | 74 | 184 | 4.0 | 11.0 | 0.00 | 0.00 | 0.00 | 57 | 1017.7 |
| 20260501185003 | 74 | 177 | 5.0 | 11.0 | 0.00 | 0.00 | 0.00 | 57 | 1017.9 |
| 20260501184503 | 74 | 184 | 5.0 | 11.0 | 0.00 | 0.00 | 0.00 | 57 | 1017.8 |
| 20260501184003 | 74 | 195 | 4.0 | 9.0 | 0.00 | 0.00 | 0.00 | 59 | 1017.7 |
| 20260501183503 | 74 | 188 | 2.0 | 7.0 | 0.00 | 0.00 | 0.00 | 64 | 1017.7 |
| 20260501183003 | 74 | 74 | 1.0 | 6.0 | 0.00 | 0.00 | 0.00 | 67 | 1017.6 |
| 20260501182503 | 74 | 64 | 0.0 | 1.0 | 0.00 | 0.00 | 0.00 | 68 | 1017.5 |
| 20260501182003 | 75 | 64 | 0.0 | 2.0 | 0.00 | 0.00 | 0.00 | 67 | 1017.5 |
| 20260501181518 | 75 | 64 | 0.0 | 2.0 | 0.00 | 0.00 | 0.00 | 67 | 1017.6 |
| 20260501181003 | 75 | 64 | 0.0 | 2.0 | 0.00 | 0.00 | 0.00 | 67 | 1017.6 |
| 20260501180503 | 75 | 64 | 0.0 | 2.0 | 0.00 | 0.00 | 0.00 | 67 | 1017.5 |
| 20260501180003 | 75 | 64 | 0.0 | 1.0 | 0.00 | 0.00 | 0.00 | 68 | 1017.5 |
| 20260501175503 | 75 | 64 | 0.0 | 2.0 | 0.00 | 0.00 | 0.00 | 67 | 1017.5 |
| 20260501175004 | 75 | 59 | 0.0 | 2.0 | 0.00 | 0.00 | 0.00 | 67 | 1017.5 |
| 20260501174503 | 75 | 44 | 1.0 | 4.0 | 0.00 | 0.00 | 0.00 | 67 | 1017.6 |
| 20260501174003 | 74 | 45 | 1.0 | 4.0 | 0.00 | 0.00 | 0.00 | 68 | 1017.4 |
| 20260501173503 | 74 | 53 | 1.0 | 2.0 | 0.00 | 0.00 | 0.00 | 67 | 1017.5 |
| 20260501173003 | 74 | 26 | 1.0 | 3.0 | 0.00 | 0.00 | 0.00 | 68 | 1017.5 |
| 20260501172503 | 74 | 351 | 1.0 | 3.0 | 0.00 | 0.00 | 0.00 | 68 | 1017.4 |
| 20260501172003 | 74 | 335 | 2.0 | 4.0 | 0.00 | 0.00 | 0.00 | 69 | 1017.6 |
| 20260501171503 | 74 | 325 | 2.0 | 4.0 | 0.00 | 0.00 | 0.00 | 69 | 1017.5 |
| 20260501171017 | 74 | 321 | 2.0 | 6.0 | 0.00 | 0.00 | 0.00 | 69 | 1017.7 |
| 20260501170503 | 74 | 323 | 1.0 | 6.0 | 0.00 | 0.00 | 0.00 | 68 | 1017.7 |
| 20260501170003 | 74 | 315 | 1.0 | 5.0 | 0.00 | 0.00 | 0.00 | 68 | 1017.6 |
| 20260501165504 | 74 | 271 | 1.0 | 5.0 | 0.00 | 0.00 | 0.00 | 68 | 1017.5 |
| 20260501165003 | 74 | 280 | 2.0 | 6.0 | 0.00 | 0.00 | 0.00 | 68 | 1017.7 |
| 20260501164504 | 74 | 321 | 2.0 | 6.0 | 0.00 | 0.00 | 0.00 | 67 | 1017.6 |
| 20260501164003 | 74 | 11 | 2.0 | 6.0 | 0.00 | 0.00 | 0.00 | 67 | 1017.6 |
| 20260501163503 | 74 | 88 | 2.0 | 6.0 | 0.00 | 0.00 | 0.00 | 67 | 1017.8 |
| 20260501163017 | 75 | 94 | 2.0 | 5.0 | 0.00 | 0.00 | 0.00 | 66 | 1017.9 |
| 20260501162503 | 75 | 65 | 2.0 | 7.0 | 0.00 | 0.00 | 0.00 | 65 | 1017.9 |
| 20260501162003 | 75 | 290 | 2.0 | 7.0 | 0.00 | 0.00 | 0.00 | 65 | 1017.8 |
| 20260501161517 | 75 | 196 | 2.0 | 4.0 | 0.00 | 0.00 | 0.00 | 66 | 1017.9 |
| 20260501161003 | 75 | 109 | 2.0 | 6.0 | 0.00 | 0.00 | 0.00 | 66 | 1017.9 |
| 20260501160503 | 75 | 84 | 2.0 | 9.0 | 0.00 | 0.00 | 0.00 | 66 | 1018.0 |
| 20260501160003 | 75 | 102 | 2.0 | 9.0 | 0.00 | 0.00 | 0.00 | 66 | 1018.0 |
| 20260501155517 | 75 | 47 | 2.0 | 6.0 | 0.00 | 0.00 | 0.00 | 67 | 1017.9 |
| 20260501155017 | 75 | 47 | 2.0 | 6.0 | 0.00 | 0.00 | 0.00 | 67 | 1017.8 |
| 20260501154503 | 74 | 109 | 2.0 | 6.0 | 0.00 | 0.00 | 0.00 | 68 | 1017.8 |
| 20260501154004 | 74 | 120 | 2.0 | 6.0 | 0.00 | 0.00 | 0.00 | 68 | 1017.9 |
| 20260501153503 | 74 | 138 | 2.0 | 6.0 | 0.00 | 0.00 | 0.00 | 67 | 1017.7 |
| 20260501153003 | 74 | 148 | 3.0 | 7.0 | 0.00 | 0.00 | 0.00 | 67 | 1017.7 |
| 20260501152517 | 74 | 161 | 3.0 | 7.0 | 0.00 | 0.00 | 0.00 | 68 | 1017.8 |
| 20260501152017 | 74 | 164 | 3.0 | 6.0 | 0.00 | 0.00 | 0.00 | 68 | 1017.8 |
| 20260501151503 | 75 | 186 | 2.0 | 4.0 | 0.00 | 0.00 | 0.00 | 67 | 1017.7 |
| 20260501151003 | 75 | 257 | 2.0 | 7.0 | 0.00 | 0.00 | 0.00 | 65 | 1017.9 |
| 20260501150517 | 76 | 252 | 2.0 | 7.0 | 0.00 | 0.00 | 0.00 | 65 | 1018.0 |
| 20260501150003 | 75 | 164 | 2.0 | 7.0 | 0.00 | 0.00 | 0.00 | 66 | 1018.0 |
| 20260501145503 | 75 | 161 | 2.0 | 7.0 | 0.00 | 0.00 | 0.00 | 65 | 1018.1 |
| 20260501145003 | 75 | 161 | 2.0 | 5.0 | 0.00 | 0.00 | 0.00 | 65 | 1018.1 |
| 20260501144517 | 74 | 196 | 2.0 | 5.0 | 0.00 | 0.00 | 0.00 | 66 | 1018.2 |
| 20260501144004 | 75 | 158 | 2.0 | 4.0 | 0.00 | 0.00 | 0.00 | 64 | 1018.4 |
| 20260501143503 | 75 | 132 | 2.0 | 6.0 | 0.00 | 0.00 | 0.00 | 62 | 1018.4 |
| 20260501142503 | 76 | 133 | 2.0 | 6.0 | 0.00 | 0.00 | 0.00 | 62 | 1018.4 |
| 20260501142003 | 76 | 139 | 3.0 | 6.0 | 0.00 | 0.00 | 0.00 | 61 | 1018.4 |
| 20260501141503 | 76 | 137 | 2.0 | 6.0 | 0.00 | 0.00 | 0.00 | 63 | 1018.4 |